Notices

What's New in latest Release from April 7th, 2021:

- Updated Glossary, including Speed of Maximum Gust, and Total Hourly Precipitation

- Updated national and regional climate services offices contacts and prices information

- Addition of station inventory lists for 1981-2010, 1971-2000, and 1961-1990 Normals.

If you haven't already, please take our survey and provide feedback about our website: https://eccc.sondage-survey.ca/f/LanguageSelection.aspx?s=442ca660-fcf1-47c0-95a9-59707d6fd709

Hourly Data Report for April 15, 2016

MIRAMICHI RCS
NEW BRUNSWICK

47°00'34.000" N
65°27'54.000" W
33.00 m
8100989
71744
ACQ

Download Data

Hourly Data (April 2016)
Hourly Data Report for April 15, 2016
TIME
LST
Temp Definition
°C
Dew Point Definition
°C
Rel Hum Definition
%
Precip. Amount Definition
mm

Wind Dir Definition
10's deg

Wind Spd Definition
km/h
Visibility Definition
km
Stn Press Definition
kPa
Hmdx Definition


Wind Chill Definition


Weather Definition


00:00 -2.9 -5.9 80 0.0 25 3   102.67   -4 LegendNANA
01:00 -0.5 -7.3 60 0.0 32 6   102.67   -3 LegendNANA
02:00 -0.6 -7.2 61 0.0 33 6   102.67   -3 LegendNANA
03:00 -0.9 -7.3 62 0.0 35 10   102.67   -4 LegendNANA
04:00 -1.3 -8.2 60 0.0 35 10   102.70   -5 LegendNANA
05:00 -1.2 -9.2 54 0.0 34 9   102.72   -4 LegendNANA
06:00 -1.0 -9.9 51 0.0 34 12   102.74   -5 LegendNANA
07:00 0.3 -9.7 47 0.0 35 11   102.80     LegendNANA
08:00 2.7 -8.9 42 0.0 2 16   102.85     LegendNANA
09:00 4.6 -7.2 42 0.0 4 18   102.90     LegendNANA
10:00 6.3 -5.5 43 0.0 3 18   102.91     LegendNANA
11:00 7.4 -6.7 36 0.0 3 25   102.90     LegendNANA
12:00 8.2 -6.3 35 0.0 5 27   102.87     LegendNANA
13:00 7.6 -4.3 43 0.0 6 28   102.87     LegendNANA
14:00 7.5 -1.7 52 0.0 7 30   102.87     LegendNANA
15:00 5.8 -2.1 57 0.0 7 34   102.89     LegendNANA
16:00 5.0 -2.8 57 0.0 7 35   102.92     LegendNANA
17:00 4.6 -2.2 61 0.0 7 35   102.95     LegendNANA
18:00 3.3 -2.2 67 0.0 7 31   103.01     LegendNANA
19:00 2.3 -2.6 70 0.0 7 19   103.07     LegendNANA
20:00 1.4 -3.6 70 0.0 6 13   103.08     LegendNANA
21:00 0.6 -3.5 74 0.0 4 8   103.10     LegendNANA
22:00 -0.1 -3.7 77 0.0 3 8   103.11   -3 LegendNANA
23:00 -0.7 -3.5 81 0.0 5 8   103.09   -4 LegendNANA

Notes on Data Quality.

Legend

  • E = Estimated
  • M = Missing
  • NA = Not Available*
  • [empty] = Indicates an unobserved value
Date modified: